OpenBCM V1.08-5-g2f4a (Linux)

Packet Radio Mailbox

IZ3LSV

[San Dona' di P. JN]

 Login: GUEST





  
CX2SA  > KEP      22.02.20 02:17l 86 Lines 3615 Bytes #999 (0) @ ARL
BID : ARLK015
Read: GUEST
Subj: ARLK015 Keplerian data
Path: IZ3LSV<IQ2LB<IK1NHL<CX2SA
Sent: 200221/2352Z @:CX2SA.SAL.URY.SOAM #:25381 [Salto] FBB7.00e $:ARLK015
From: CX2SA@CX2SA.SAL.URY.SOAM
To  : KEP@ARL


ZCZC SK15
QST de W1AW
Keplerian Bulletin 15  ARLK015
From ARRL Headquarters
Newington, CT  February 21, 2020
To all radio amateurs

SB KEP ARL ARLK015
ARLK015 Keplerian data

Special thanks to AMSAT-NA (AMSAT.ORG) for the following Keplerian
data.

Decode 2-line elsets with the following key:
1 AAAAAU 00  0  0 BBBBB.BBBBBBBB  .CCCCCCCC  00000-0  00000-0 0  DDDZ
2 AAAAA EEE.EEEE FFF.FFFF GGGGGGG HHH.HHHH III.IIII JJ.JJJJJJJJKKKKKZ
KEY: A-CATALOGNUM B-EPOCHTIME C-DECAY D-ELSETNUM E-INCLINATION F-RAAN
G-ECCENTRICITY H-ARGPERIGEE I-MNANOM J-MNMOTION K-ORBITNUM Z-CHECKSUM

0 AO-07
1 7530U 74089B   20052.50898615 -.00000046 +00000-0 -34153-5 0  9997
2 7530 101.7845 022.9754 0011910 228.7193 278.1481 12.53642207071333
0 FO-29
1 24278U 96046B   20052.41010315 -.00000010 +00000-0 +28938-4 0  9998
2 24278 098.5676 177.6575 0349601 318.1349 039.3529 13.53095642161058
0 ISS
1 25544U 98067A   20052.87165775  .00000628  00000-0  19482-4 0  9999
2 25544  51.6420 203.9871 0004814 302.9522 221.1217 15.49186146213984
0 SO-50
1 27607U 02058C   20052.32664878 -.00000040  00000-0  15036-4 0  9994
2 27607  64.5565  12.4735 0062381 206.5522 153.2382 14.75610471923575
0 CO-55
1 27844U 03031E   20052.50767621  .00000053  00000-0  43503-4 0  9992
2 27844  98.6843  61.9944 0010503  39.3405 320.8534 14.22222030863517
0 RS-22
1 27939U 03042A   20052.53566040  .00000075  00000-0  22141-4 0  9993
2 27939  98.0699 189.0430 0013031   9.4172 350.7279 14.66838019876874
0 RS-30
1 32953U 08025A   20052.45417984  .00000037  00000-0  19437-3 0  9995
2 32953  82.5074 350.6732 0018797 312.5403  47.4092 12.43094474533090
0 KKS-1
1 33499U 09002H   20052.54060781 +.00000111 +00000-0 +24340-4 0  9999
2 33499 098.3302 263.9063 0010008 132.2563 227.9496 14.75505491595341
0 AO-71
1 37854U 11061E   20052.52442254 +.00001479 +00000-0 +81929-4 0  9997
2 37854 101.7118 083.4352 0159174 049.5241 311.9722 15.07003499453864
0 AO-73
1 39444U 13066AE  20052.49706103 +.00000261 +00000-0 +38397-4 0  9992
2 39444 097.5587 059.2022 0056579 294.8430 064.6907 14.82066483336049
0 UKUBE 1
1 40074U 14037F   20052.46833337  .00000190  00000-0  29903-4 0  9993
2 40074  98.4533 233.8458 0005284 124.0037 236.1685 14.84195595304401
0 XW-2A
1 40903U 15049E   20052.58195519 +.00002429 +00000-0 +57645-4 0  9995
2 40903 097.3061 101.3701 0012320 334.3485 182.9283 15.42653874248456
0 XW-2F
1 40910U 15049M   20052.55042683 +.00001163 +00000-0 +60888-4 0  9990
2 40910 097.4678 057.7305 0016068 051.7667 076.3986 15.17717476244608
0 XW-2B
1 40911U 15049N   20052.48495894  .00000852  00000-0  47621-4 0  9993
2 40911  97.4757  55.9600 0015605  61.1276  90.1598 15.16079367244446
0 IO-86
1 40931U 15052B   20047.50314939  .00000440  00000-0 -27845-4 0  9996
2 40931   5.9959 125.0758 0013548 350.9845   9.0050 14.76624032237202
0 CAS-4B
1 42759U 17034B   20052.58138154 +.00000188 +00000-0 +24962-4 0  9990
2 42759 043.0202 309.1493 0011827 008.1953 061.5881 15.09746923148305
0 CAS-4A
1 42761U 17034D   20052.59857689 +.00000100 +00000-0 +19613-4 0  9996
2 42761 043.0202 308.4317 0012152 009.2731 064.1370 15.09824181148308
0 AO-91
1 43017U 17073E   20052.47296735 +.00000659 +00000-0 +55973-4 0  9998
2 43017 097.7267 329.2054 0258807 071.5604 291.3554 14.78802257121875
0 AO-92
1 43137U 18004AC  20052.41528932 +.00001131 +00000-0 +49767-4 0  9997
2 43137 097.4588 124.3134 0010843 105.0758 255.1680 15.23892900117220

Keplerian bulletins are transmitted twice weekly from W1AW.  The
next scheduled transmission of these data will be Tuesday, February
25, 2020, at 2330z on Baudot and BPSK31.
NNNN


Read previous mail | Read next mail


 20.08.2025 02:19:01lGo back Go up